| time (UTC) | temp F | wind direction | speed knots | gust knots | rain 1hr in | rain 24hr in | rain mn in | humidity % | barometer mb |
| 20260905175009 | 74 | 61 | 0.0 | 7.8 | 0.00 | 0.00 | 0.00 | 41 | 1018.2 |
| 20260905174010 | 73 | 3 | 3.5 | 11.3 | 0.00 | 0.00 | 0.00 | 40 | 1018.1 |
| 20260905173010 | 72 | 1 | 1.7 | 7.0 | 0.00 | 0.00 | 0.00 | 42 | 1018.1 |
| 20260905172009 | 71 | 307 | 0.9 | 5.2 | 0.00 | 0.00 | 0.00 | 43 | 1018.1 |
| 20260905171010 | 70 | 355 | 0.9 | 6.1 | 0.00 | 0.00 | 0.00 | 44 | 1018.1 |
| 20260905165010 | 69 | 17 | 1.7 | 6.1 | 0.00 | 0.00 | 0.00 | 46 | 1018.1 |
| 20260905163010 | 68 | 227 | 0.0 | 2.6 | 0.00 | 0.00 | 0.00 | 52 | 1017.8 |
| 20260905162010 | 67 | 227 | 0.0 | 0.0 | 0.00 | 0.00 | 0.00 | 56 | 1017.8 |
| 20260905161010 | 66 | 227 | 0.0 | 0.0 | 0.00 | 0.00 | 0.00 | 58 | 1017.7 |
| 20260905155009 | 62 | 227 | 0.0 | 0.0 | 0.00 | 0.00 | 0.00 | 65 | 1017.7 |
| 20260905154009 | 61 | 227 | 0.0 | 0.0 | 0.00 | 0.00 | 0.00 | 67 | 1017.7 |
| 20260905152009 | 59 | 227 | 0.0 | 0.0 | 0.00 | 0.00 | 0.00 | 69 | 1017.5 |
| 20260905151010 | 58 | 227 | 0.0 | 0.0 | 0.00 | 0.00 | 0.00 | 70 | 1017.4 |
| 20260905150010 | 58 | 227 | 0.0 | 0.0 | 0.00 | 0.00 | 0.00 | 71 | 1017.5 |
| 20260905145011 | 57 | 227 | 0.0 | 0.0 | 0.00 | 0.00 | 0.00 | 72 | 1017.4 |
| 20260905144009 | 56 | 227 | 0.0 | 0.0 | 0.00 | 0.00 | 0.00 | 75 | 1017.4 |
| 20260905143009 | 56 | 227 | 0.0 | 0.0 | 0.00 | 0.00 | 0.00 | 77 | 1017.4 |
| 20260905142010 | 55 | 227 | 0.0 | 0.0 | 0.00 | 0.00 | 0.00 | 77 | 1017.3 |
| 20260905141010 | 55 | 227 | 0.0 | 0.0 | 0.00 | 0.00 | 0.00 | 77 | 1017.3 |
| 20260905140009 | 55 | 227 | 0.0 | 0.0 | 0.00 | 0.00 | 0.00 | 76 | 1017.2 |
| 20260905135009 | 55 | 227 | 0.0 | 0.0 | 0.00 | 0.00 | 0.00 | 75 | 1017.1 |
| 20260905134010 | 55 | 227 | 0.0 | 0.0 | 0.00 | 0.00 | 0.00 | 73 | 1017.1 |
| 20260905133010 | 56 | 227 | 0.0 | 0.0 | 0.00 | 0.00 | 0.00 | 72 | 1016.9 |
| 20260905132009 | 56 | 227 | 0.0 | 0.0 | 0.00 | 0.00 | 0.00 | 72 | 1016.9 |
| 20260905131009 | 56 | 227 | 0.0 | 0.0 | 0.00 | 0.00 | 0.00 | 71 | 1016.8 |
| 20260905130010 | 57 | 227 | 0.0 | 0.0 | 0.00 | 0.00 | 0.00 | 70 | 1016.8 |
| 20260905125009 | 57 | 227 | 0.0 | 0.0 | 0.00 | 0.00 | 0.00 | 69 | 1016.9 |
| 20260905123009 | 57 | 227 | 0.0 | 0.0 | 0.00 | 0.00 | 0.00 | 69 | 1017.0 |
| 20260905122009 | 57 | 227 | 0.0 | 0.0 | 0.00 | 0.00 | 0.00 | 70 | 1016.9 |
| 20260905121010 | 57 | 227 | 0.0 | 0.0 | 0.00 | 0.00 | 0.00 | 70 | 1017.0 |
| 20260905120009 | 57 | 227 | 0.0 | 0.0 | 0.00 | 0.00 | 0.00 | 69 | 1017.1 |
| 20260905115009 | 57 | 227 | 0.0 | 0.0 | 0.00 | 0.00 | 0.00 | 70 | 1017.0 |
| 20260905113009 | 57 | 227 | 0.0 | 0.0 | 0.00 | 0.00 | 0.00 | 70 | 1017.1 |
| 20260905111010 | 57 | 227 | 0.0 | 0.0 | 0.00 | 0.00 | 0.00 | 68 | 1017.3 |
| 20260905110010 | 57 | 227 | 0.0 | 0.0 | 0.00 | 0.00 | 0.00 | 67 | 1017.3 |
| 20260905105010 | 57 | 227 | 0.0 | 0.0 | 0.00 | 0.00 | 0.00 | 67 | 1017.2 |
| 20260905104012 | 57 | 227 | 0.0 | 0.0 | 0.00 | 0.00 | 0.00 | 67 | 1017.2 |
| 20260905103010 | 57 | 227 | 0.0 | 0.0 | 0.00 | 0.00 | 0.00 | 67 | 1017.3 |
| 20260905102010 | 57 | 227 | 0.0 | 0.0 | 0.00 | 0.00 | 0.00 | 67 | 1017.4 |
| 20260905101010 | 57 | 227 | 0.0 | 0.0 | 0.00 | 0.00 | 0.00 | 67 | 1017.4 |
| 20260905100010 | 57 | 227 | 0.0 | 0.0 | 0.00 | 0.00 | 0.00 | 66 | 1017.4 |
| 20260905095010 | 57 | 227 | 0.0 | 0.0 | 0.00 | 0.00 | 0.00 | 66 | 1017.5 |
| 20260905094010 | 57 | 227 | 0.0 | 0.0 | 0.00 | 0.00 | 0.00 | 66 | 1017.5 |
| 20260905093010 | 57 | 227 | 0.0 | 0.0 | 0.00 | 0.00 | 0.00 | 66 | 1017.5 |
| 20260905092010 | 57 | 227 | 0.0 | 0.0 | 0.00 | 0.00 | 0.00 | 66 | 1017.7 |
| 20260905091010 | 57 | 227 | 0.0 | 0.0 | 0.00 | 0.00 | 0.00 | 67 | 1017.7 |
| 20260905090010 | 57 | 227 | 0.0 | 0.0 | 0.00 | 0.00 | 0.00 | 67 | 1017.8 |
| 20260905085010 | 57 | 227 | 0.0 | 0.0 | 0.00 | 0.00 | 0.00 | 66 | 1017.8 |
| 20260905084010 | 57 | 227 | 0.0 | 0.0 | 0.00 | 0.00 | 0.00 | 66 | 1017.9 |
| 20260905083010 | 57 | 227 | 0.0 | 0.0 | 0.00 | 0.00 | 0.00 | 65 | 1017.9 |
| 20260905082010 | 57 | 227 | 0.0 | 0.0 | 0.00 | 0.00 | 0.00 | 65 | 1017.9 |
| 20260905081009 | 58 | 227 | 0.0 | 0.0 | 0.00 | 0.00 | 0.00 | 65 | 1017.9 |
| 20260905080009 | 58 | 227 | 0.0 | 0.0 | 0.00 | 0.00 | 0.00 | 65 | 1018.0 |
| 20260905074010 | 57 | 227 | 0.0 | 0.0 | 0.00 | 0.00 | 0.00 | 65 | 1018.0 |
| 20260905073010 | 57 | 227 | 0.0 | 0.0 | 0.00 | 0.00 | 0.00 | 66 | 1017.9 |
| 20260905071009 | 57 | 227 | 0.0 | 0.0 | 0.00 | 0.00 | 0.00 | 67 | 1017.9 |
| 20260905065009 | 58 | 227 | 0.0 | 0.0 | 0.00 | 0.00 | 0.00 | 65 | 1017.8 |
| 20260905063009 | 58 | 227 | 0.0 | 0.0 | 0.00 | 0.00 | 0.00 | 64 | 1017.8 |
| 20260905062009 | 58 | 227 | 0.0 | 0.0 | 0.00 | 0.00 | 0.00 | 63 | 1017.9 |
| 20260905061010 | 59 | 227 | 0.0 | 0.0 | 0.00 | 0.00 | 0.00 | 61 | 1017.8 |
| 20260905060009 | 60 | 227 | 0.0 | 0.0 | 0.00 | 0.00 | 0.00 | 60 | 1017.9 |
| 20260905055010 | 60 | 227 | 0.0 | 0.0 | 0.00 | 0.00 | 0.00 | 59 | 1017.9 |
| 20260905054010 | 60 | 227 | 0.0 | 0.0 | 0.00 | 0.00 | 0.00 | 59 | 1017.9 |
| 20260905053009 | 60 | 227 | 0.0 | 0.0 | 0.00 | 0.00 | 0.00 | 58 | 1018.0 |
| 20260905052010 | 60 | 227 | 0.0 | 0.0 | 0.00 | 0.00 | 0.00 | 58 | 1018.1 |
| 20260905051010 | 60 | 227 | 0.0 | 0.0 | 0.00 | 0.00 | 0.00 | 58 | 1018.2 |
| 20260905045010 | 61 | 227 | 0.0 | 0.0 | 0.00 | 0.00 | 0.00 | 57 | 1018.2 |
| 20260905044010 | 61 | 227 | 0.0 | 0.0 | 0.00 | 0.00 | 0.00 | 57 | 1018.1 |
| 20260905042009 | 61 | 227 | 0.0 | 0.0 | 0.00 | 0.00 | 0.00 | 56 | 1018.0 |
| 20260905040010 | 61 | 227 | 0.0 | 0.0 | 0.00 | 0.00 | 0.00 | 53 | 1016.5 |
| 20260905035009 | 62 | 227 | 0.0 | 0.0 | 0.00 | 0.00 | 0.00 | 52 | 1017.8 |
| 20260905034010 | 62 | 227 | 0.0 | 0.0 | 0.00 | 0.00 | 0.00 | 50 | 1017.6 |
| 20260905033009 | 63 | 227 | 0.0 | 0.0 | 0.00 | 0.00 | 0.00 | 49 | 1017.4 |
| 20260905030010 | 65 | 227 | 0.0 | 0.0 | 0.00 | 0.00 | 0.00 | 46 | 1017.3 |
| 20260905025009 | 66 | 227 | 0.0 | 0.0 | 0.00 | 0.00 | 0.00 | 45 | 1017.3 |
| 20260905023009 | 67 | 227 | 0.0 | 0.0 | 0.00 | 0.00 | 0.00 | 43 | 1017.3 |
| 20260905022010 | 68 | 227 | 0.0 | 0.0 | 0.00 | 0.00 | 0.00 | 42 | 1017.3 |
| 20260905021010 | 68 | 227 | 0.0 | 0.0 | 0.00 | 0.00 | 0.00 | 42 | 1017.3 |
| 20260905020009 | 69 | 227 | 0.0 | 4.3 | 0.00 | 0.00 | 0.00 | 41 | 1017.2 |
| 20260905015010 | 69 | 357 | 0.0 | 0.0 | 0.00 | 0.00 | 0.00 | 40 | 1017.3 |
| 20260905014009 | 69 | 357 | 0.0 | 7.8 | 0.00 | 0.00 | 0.00 | 39 | 1017.3 |
| 20260905013009 | 70 | 319 | 0.0 | 5.2 | 0.00 | 0.00 | 0.00 | 38 | 1017.2 |
| 20260905012010 | 70 | 318 | 1.7 | 5.2 | 0.00 | 0.00 | 0.00 | 38 | 1017.2 |
| 20260905005009 | 73 | 24 | 0.9 | 6.1 | 0.00 | 0.00 | 0.00 | 34 | 1017.1 |
| 20260905004009 | 74 | 275 | 0.0 | 7.0 | 0.00 | 0.00 | 0.00 | 32 | 1017.2 |
| 20260905003010 | 74 | 282 | 0.9 | 7.0 | 0.00 | 0.00 | 0.00 | 30 | 1017.2 |
| 20260905002009 | 75 | 276 | 0.9 | 6.1 | 0.00 | 0.00 | 0.00 | 29 | 1017.2 |
| 20260905001009 | 75 | 224 | 0.9 | 7.0 | 0.00 | 0.00 | 0.00 | 28 | 1017.3 |
| 20260905000009 | 75 | 247 | 0.0 | 7.8 | 0.00 | 0.00 | 0.00 | 28 | 1017.3 |
| 20260904233010 | 76 | 272 | 1.7 | 7.8 | 0.00 | 0.00 | 0.00 | 28 | 1017.3 |
| 20260904231010 | 76 | 259 | 4.3 | 8.7 | 0.00 | 0.00 | 0.00 | 32 | 1017.2 |
| 20260904230010 | 75 | 288 | 2.6 | 7.0 | 0.00 | 0.00 | 0.00 | 33 | 1017.2 |
| 20260904225010 | 74 | 201 | 2.6 | 10.4 | 0.00 | 0.00 | 0.00 | 35 | 1017.2 |
| 20260904223010 | 74 | 356 | 0.9 | 7.8 | 0.00 | 0.00 | 0.00 | 36 | 1017.4 |
| 20260904222010 | 75 | 53 | 1.7 | 7.0 | 0.00 | 0.00 | 0.00 | 38 | 1016.0 |
| 20260904220010 | 76 | 257 | 2.6 | 6.1 | 0.00 | 0.00 | 0.00 | 37 | 1017.4 |
| 20260904215010 | 75 | 121 | 2.6 | 7.0 | 0.00 | 0.00 | 0.00 | 38 | 1017.4 |
| 20260904214010 | 75 | 278 | 2.6 | 10.4 | 0.00 | 0.00 | 0.00 | 38 | 1017.4 |
| 20260904213009 | 74 | 191 | 0.9 | 10.4 | 0.00 | 0.00 | 0.00 | 40 | 1017.4 |
| 20260904212009 | 73 | 171 | 0.9 | 8.7 | 0.00 | 0.00 | 0.00 | 41 | 1017.4 |
| 20260904205010 | 74 | 214 | 0.9 | 10.4 | 0.00 | 0.00 | 0.00 | 44 | 1017.4 |
| 20260904204010 | 73 | 299 | 2.6 | 7.8 | 0.00 | 0.00 | 0.00 | 45 | 1017.3 |
| 20260904202011 | 72 | 250 | 2.6 | 10.4 | 0.00 | 0.00 | 0.00 | 48 | 1017.3 |
| 20260904201010 | 71 | 198 | 0.0 | 10.4 | 0.00 | 0.00 | 0.00 | 51 | 1017.2 |
| 20260904200011 | 70 | 352 | 2.6 | 10.4 | 0.00 | 0.00 | 0.00 | 54 | 1017.2 |
| 20260904195009 | 69 | 263 | 3.5 | 7.8 | 0.00 | 0.00 | 0.00 | 59 | 1017.2 |
| 20260904194010 | 68 | 346 | 3.5 | 11.3 | 0.00 | 0.00 | 0.00 | 61 | 1017.2 |
| 20260904193010 | 68 | 350 | 2.6 | 8.7 | 0.00 | 0.00 | 0.00 | 63 | 1017.3 |
| 20260904192010 | 66 | 332 | 3.5 | 11.3 | 0.00 | 0.00 | 0.00 | 66 | 1017.4 |
| 20260904191009 | 66 | 2 | 2.6 | 8.7 | 0.00 | 0.00 | 0.00 | 67 | 1017.4 |
| 20260904190010 | 66 | 343 | 2.6 | 7.0 | 0.00 | 0.00 | 0.00 | 69 | 1017.7 |
| 20260904185009 | 66 | 0 | 5.2 | 12.2 | 0.00 | 0.00 | 0.00 | 69 | 1017.5 |
| 20260904184009 | 66 | 310 | 1.7 | 10.4 | 0.00 | 0.00 | 0.00 | 71 | 1017.4 |
| 20260904183012 | 66 | 342 | 4.3 | 7.8 | 0.00 | 0.00 | 0.00 | 72 | 1017.5 |
| 20260904182010 | 65 | 12 | 2.6 | 5.2 | 0.00 | 0.00 | 0.00 | 74 | 1017.5 |
| 20260904181010 | 65 | 343 | 0.9 | 8.7 | 0.00 | 0.00 | 0.00 | 76 | 1017.5 |
| 20260904180009 | 65 | 8 | 4.3 | 7.0 | 0.00 | 0.00 | 0.00 | 77 | 1017.4 |